Location: C�mpuri de-Sus
(45.9500°N, 22.5500°E)
Time: 04:21:40
(UTC+00:00)

Cosmos 614 Rocket - Pass Details

Date: 24 October 2021
Orbit: 733 x 763 km, 74.1° (Epoch: 30 November)

Event Time Altitude Azimuth Distance (km) Brightness Sun altitude
Rises 16:58:49 0° 339° (NNW) 3,173 7.5 -16.4°
Reaches altitude 10° 17:01:11 10° 341° (NNW) 2,249 6.7 -16.8°
Maximum altitude 17:06:17 76° 68° (ENE) 765 3.8 -17.7°
Drops below altitude 10° 17:11:22 10° 154° (SSE) 2,248 6.2 -18.5°
Enters shadow 17:11:36 - 154° (SSE) 2,340 6.2 -18.6°
